Location: Gu�tanj
(46.5431°N, 14.9692°E)
Time: 15:22:29
(UTC+00:00)

Cosmos 1980 Rocket - Pass Details

Date: 03 March 2021
Orbit: 828 x 851 km, 71.0° (Epoch: 14 April)

Event Time Altitude Azimuth Distance (km) Brightness Sun altitude
Rises 17:09:08 0° 223° (SW) 3,386 6.2 -4.3°
Reaches altitude 10° 17:11:39 10° 229° (SW) 2,458 5.6 -4.7°
Maximum altitude 17:17:05 48° 303° (WNW) 1,103 3.3 -5.6°
Drops below altitude 10° 17:22:36 10° 18° (NNE) 2,485 4.4 -6.6°
Sets 17:25:10 0° 24° (NNE) 3,426 5.1 -7.0°
